Date String (YYYY-MM-DD hh:mm:ss) UTC,Instrument flags,Ambient pressure (hPa),Sample flow (lpm),Bypass flow (lpm),Sample temperature (°C),Ambient temperature (°C),ASC tube jacket temperature (°C),LED temperature (°C),Box temperature (°C),Sample RH (%),Span deviation,Mass concentration (μg/m³),Mass concentration (μg/m³),Mass concentration (μg/m³)
DateTimeUTC,F1_M11,P_M11,Q1_M11,Q2_M11,T1_M11,T2_M11,T3_M11,T4_M11,T5_M11,U1_M11,ZSPAN_M11,X0_M11,X2_M11,X1_M11
2022-06-24 19:00:00,,0824.3,5.00,0.00,29.1,27.7,00.0,37.8,31.0,17.6,0000.0,0012.15,0003.39,0002.38
2022-06-24 19:01:00,,0824.3,5.01,0.00,29.1,27.0,00.0,37.7,30.8,17.7,0000.0,0012.38,0003.39,0002.38
2022-06-24 19:02:00,,0824.3,4.99,0.00,29.0,26.9,00.0,37.7,30.8,18.2,0000.0,0012.65,0003.37,0002.37
2022-06-24 19:03:00,,0824.3,5.00,0.00,29.0,27.0,00.0,37.7,30.8,18.4,0000.0,0012.83,0003.41,0002.39
2022-06-24 19:04:00,,0824.2,5.00,0.00,28.9,27.1,00.0,37.7,30.8,19.0,0000.0,0013.16,0003.47,0002.40
2022-06-24 19:05:00,,0824.3,4.99,0.00,28.9,27.3,00.0,37.7,30.8,19.3,0000.0,0013.34,0003.54,0002.42
2022-06-24 19:06:00,,0824.3,5.00,0.00,29.0,27.5,00.0,37.7,30.9,18.9,0000.0,0012.39,0003.55,0002.43
2022-06-24 19:07:00,,0824.3,4.99,0.00,29.0,27.7,00.0,37.7,30.9,19.2,0000.0,0012.25,0003.54,0002.43
2022-06-24 19:08:00,,0824.3,5.00,0.00,29.0,27.8,00.0,37.8,31.0,19.0,0000.0,0011.36,0003.54,0002.44
2022-06-24 19:09:00,,0824.2,5.00,0.00,29.0,28.0,00.0,37.8,31.1,18.5,0000.0,0010.45,0003.58,0002.46
2022-06-24 19:10:00,,0824.3,5.00,0.00,29.1,28.2,00.0,37.8,31.1,18.2,0000.0,0010.42,0003.63,0002.48
2022-06-24 19:11:00,,0824.3,5.00,0.00,29.1,28.2,00.0,37.8,31.1,17.9,0000.0,0010.45,0003.66,0002.50
2022-06-24 19:12:00,,0824.2,5.00,0.00,29.1,27.5,00.0,37.8,31.0,18.0,0000.0,0010.03,0003.64,0002.53
2022-06-24 19:13:00,,0824.2,4.99,0.00,29.0,27.0,00.0,37.7,30.8,18.7,0000.0,0010.13,0003.66,0002.55
2022-06-24 19:14:00,,0824.1,5.02,0.00,29.0,26.9,00.0,37.7,30.8,19.2,0000.0,0010.14,0003.65,0002.55
2022-06-24 19:15:00,,0824.1,5.00,0.00,29.0,27.0,00.0,37.7,30.8,19.0,0000.0,0010.67,0003.60,0002.55
2022-06-24 19:16:00,,0824.1,4.99,0.00,28.9,27.1,00.0,37.7,30.8,18.6,0000.0,0010.49,0003.56,0002.56
2022-06-24 19:17:00,,0824.1,5.00,0.00,29.0,27.3,00.0,37.7,30.8,18.7,0000.0,0010.48,0003.56,0002.58
2022-06-24 19:18:00,,0824.1,5.00,0.00,29.0,27.5,00.0,37.7,30.9,19.4,0000.0,0010.31,0003.57,0002.58
2022-06-24 19:19:00,,0824.1,5.00,0.00,29.0,27.7,00.0,37.7,31.0,19.0,0000.0,0010.35,0003.58,0002.57
2022-06-24 19:20:00,,0824.1,5.00,0.00,29.0,27.9,00.0,37.8,31.0,18.8,0000.0,0010.24,0003.59,0002.59
2022-06-24 19:21:00,,0824.1,5.00,0.00,29.1,28.1,00.0,37.8,31.1,19.5,0000.0,0009.72,0003.60,0002.61
2022-06-24 19:22:00,,0824.1,4.99,0.00,29.1,28.2,00.0,37.8,31.1,19.6,0000.0,0009.62,0003.61,0002.63
2022-06-24 19:23:00,,0824.1,5.00,0.00,29.1,27.7,00.0,37.8,31.0,19.3,0000.0,0010.18,0003.72,0002.63
2022-06-24 19:24:00,,0824.1,4.99,0.00,29.0,27.1,00.0,37.7,30.9,19.9,0000.0,0010.29,0003.74,0002.64
2022-06-24 19:25:00,,0824.1,5.00,0.00,29.0,27.0,00.0,37.7,30.8,19.7,0000.0,0010.11,0003.75,0002.65
2022-06-24 19:26:00,,0824.1,4.99,0.00,29.0,27.1,00.0,37.7,30.8,19.7,0000.0,0009.57,0003.77,0002.66
2022-06-24 19:27:00,,0824.1,5.01,0.00,29.0,27.2,00.0,37.7,30.8,18.8,0000.0,0009.55,0003.77,0002.67
2022-06-24 19:28:00,,0824.2,5.00,0.00,29.0,27.4,00.0,37.7,30.9,18.7,0000.0,0010.84,0003.75,0002.66
2022-06-24 19:29:00,,0824.1,5.00,0.00,29.0,27.6,00.0,37.7,30.9,18.6,0000.0,0012.06,0003.78,0002.66
2022-06-24 19:30:00,,0824.1,5.00,0.00,29.0,27.8,00.0,37.8,31.0,18.8,0000.0,0011.89,0003.75,0002.67
2022-06-24 19:31:00,,0824.2,5.00,0.00,29.0,28.0,00.0,37.8,31.1,18.6,0000.0,0012.09,0003.74,0002.67
2022-06-24 19:32:00,,0824.1,5.00,0.00,29.1,28.1,00.0,37.8,31.1,18.3,0000.0,0012.56,0003.73,0002.67
2022-06-24 19:33:00,,0824.1,5.01,0.00,29.1,28.2,00.0,37.8,31.2,18.3,0000.0,0012.40,0003.69,0002.65
2022-06-24 19:34:00,,0824.1,5.00,0.00,29.2,27.9,00.0,37.8,31.1,18.2,0000.0,0012.02,0003.61,0002.64
2022-06-24 19:35:00,,0824.1,5.00,0.00,29.1,27.2,00.0,37.7,30.9,17.8,0000.0,0011.75,0003.57,0002.64
2022-06-24 19:36:00,,0824.1,4.99,0.00,29.0,27.0,00.0,37.7,30.8,17.9,0000.0,0011.92,0003.53,0002.62
2022-06-24 19:37:00,,0824.1,4.99,0.00,29.0,27.1,00.0,37.7,30.8,17.9,0000.0,0011.71,0003.51,0002.61
2022-06-24 19:38:00,,0824.2,5.00,0.00,29.0,27.2,00.0,37.7,30.8,17.4,0000.0,0011.84,0003.51,0002.60
2022-06-24 19:39:00,,0824.3,4.99,0.00,29.0,27.4,00.0,37.7,30.9,17.6,0000.0,0010.32,0003.50,0002.61
2022-06-24 19:40:00,,0824.3,5.00,0.00,29.0,27.6,00.0,37.8,30.9,17.6,0000.0,0009.13,0003.49,0002.62
2022-06-24 19:41:00,,0824.3,5.00,0.00,29.0,27.8,00.0,37.8,31.0,17.9,0000.0,0009.08,0003.47,0002.62
2022-06-24 19:42:00,,0824.3,5.01,0.00,29.1,27.9,00.0,37.8,31.1,18.1,0000.0,0009.48,0003.50,0002.62
2022-06-24 19:43:00,,0824.3,5.00,0.00,29.1,28.1,00.0,37.8,31.1,18.1,0000.0,0009.27,0003.49,0002.62
2022-06-24 19:44:00,,0824.4,4.99,0.00,29.1,28.2,00.0,37.8,31.2,17.9,0000.0,0009.71,0003.52,0002.63
2022-06-24 19:45:00,,0824.4,5.00,0.00,29.1,27.6,00.0,37.8,31.0,17.7,0000.0,0010.18,0003.53,0002.63
2022-06-24 19:46:00,,0824.5,5.01,0.00,29.1,27.0,00.0,37.7,30.8,17.6,0000.0,0010.05,0003.53,0002.66
2022-06-24 19:47:00,,0824.5,4.99,0.00,29.0,27.0,00.0,37.7,30.8,17.6,0000.0,0010.16,0003.57,0002.67
2022-06-24 19:48:00,,0824.8,4.98,0.00,29.0,27.0,00.0,37.7,30.8,18.0,0000.0,0010.14,0003.60,0002.68
2022-06-24 19:49:00,,0824.8,5.00,0.00,29.0,27.2,00.0,37.7,30.8,18.5,0000.0,0011.18,0003.69,0002.70
2022-06-24 19:50:00,,0824.6,5.01,0.00,29.0,27.4,00.0,37.7,30.9,18.9,0000.0,0012.19,0003.90,0002.73
2022-06-24 19:51:00,,0824.4,4.99,0.00,29.0,27.6,00.0,37.8,30.9,20.5,0000.0,0013.16,0004.00,0002.73
2022-06-24 19:52:00,,0824.4,5.00,0.00,29.0,27.7,00.0,37.8,31.0,20.5,0000.0,0017.40,0004.21,0002.72
2022-06-24 19:53:00,,0824.4,4.99,0.00,29.0,27.9,00.0,37.8,31.0,20.2,0000.0,0020.07,0004.30,0002.69
2022-06-24 19:54:00,,0824.4,5.00,0.00,29.1,28.0,00.0,37.8,31.1,20.1,0000.0,0021.62,0004.32,0002.62
2022-06-24 19:55:00,,0824.4,5.00,0.00,29.1,28.1,00.0,37.8,31.1,20.0,0000.0,0022.43,0004.40,0002.55
2022-06-24 19:56:00,,0824.4,5.00,0.00,29.1,27.6,00.0,37.8,31.0,20.1,0000.0,0022.56,0004.40,0002.49
2022-06-24 19:57:00,,0824.5,5.01,0.00,29.0,26.9,00.0,37.7,30.8,20.2,0000.0,0022.79,0004.41,0002.41
2022-06-24 19:58:00,,0824.6,5.01,0.00,29.0,26.8,00.0,37.7,30.7,20.2,0000.0,0023.56,0004.38,0002.33
2022-06-24 19:59:00,,0824.6,5.00,0.00,28.9,26.8,00.0,37.7,30.7,20.4,0000.0,0024.43,0004.38,0002.25
